DW8689 Weather Reports


Display with metric or nautical units.
time (UTC)temp
F
wind
direction
speed
MPH
gust
MPH
rain 1hr
in
rain 24hr
in
rain mn
in
humidity
%
barometer
mb
20191210030009 47 0 0.0 0.0 0.00 0.11 0.03 99 979.2
20191210023009 46 0 0.0 0.0 0.03 0.11 0.03 99 980.6
20191210021007 46 0 0.0 0.0 0.03 0.11 0.03 99 981.0
20191210012006 45 0 0.0 0.0 0.00 0.11 0.00 99 983.1
20191210011006 45 0 0.0 0.0 0.00 0.11 0.00 99 983.7
20191210010009 45 0 0.0 0.0 0.00 0.11 0.00 99 984.2
20191210004006 45 0 0.0 0.0 0.00 0.11 0.00 99 984.7
20191210002006 44 0 0.0 0.0 0.00 0.17 0.00 99 985.5
20191210000008 44 0 0.0 0.0 0.00 0.17 0.00 99 985.9
20191209235007 43 0 0.0 0.0 0.00 0.17 0.17 99 986.4
20191209234009 43 0 0.0 0.0 0.00 0.17 0.17 99 986.9
20191209233006 43 0 0.0 0.0 0.00 0.17 0.17 99 987.5
20191209232007 42 0 0.0 0.0 0.00 0.19 0.17 99 987.9
20191209231009 42 0 0.0 0.0 0.00 0.19 0.17 99 987.9
20191209230007 42 0 0.0 0.0 0.00 0.22 0.17 99 988.2
20191209225006 41 0 0.0 0.0 0.00 0.22 0.17 99 988.6
20191209223007 41 0 0.0 0.0 0.00 0.22 0.17 99 989.5
20191209212006 42 0 0.0 0.0 0.00 0.52 0.17 99 991.3
20191209211007 42 0 0.0 0.0 0.00 0.55 0.17 99 991.8
20191209205006 43 0 0.0 0.0 0.00 0.55 0.17 99 992.2
20191209203006 44 0 0.0 0.0 0.00 0.58 0.17 99 992.4
20191209202007 44 0 0.0 0.0 0.00 0.58 0.17 99 992.7
20191209200007 44 0 0.0 0.0 0.00 0.61 0.17 99 992.9
20191209195007 44 0 0.0 0.0 0.00 0.61 0.17 99 993.3
20191209194006 44 0 0.0 0.0 0.00 0.61 0.17 99 993.4
20191209192009 43 0 0.0 0.0 0.00 0.63 0.17 99 993.8
20191209185006 42 0 0.0 0.0 0.00 0.63 0.17 99 994.4
20191209183006 43 0 0.0 0.0 0.00 0.66 0.17 99 994.6
20191209182007 43 0 0.0 0.0 0.00 0.66 0.17 99 994.6
20191209171006 42 0 0.0 0.0 0.00 0.69 0.17 99 995.4
20191209163006 43 0 0.0 0.0 0.00 0.72 0.17 99 995.6
20191209161006 44 0 0.0 0.0 0.00 0.74 0.17 99 996.0
20191209160009 44 0 0.0 0.0 0.00 0.80 0.17 99 995.9
20191209155006 44 0 0.0 0.0 0.00 0.83 0.17 99 996.1
20191209154006 45 0 0.0 0.0 0.00 0.83 0.17 99 996.1
20191209152006 46 0 0.0 0.0 0.00 0.83 0.17 99 996.3
20191209144006 48 0 0.0 0.0 0.00 0.91 0.17 99 996.1
20191209142006 50 0 0.0 0.0 0.00 1.05 0.17 95 996.0
20191209141006 51 0 0.0 0.0 0.00 1.05 0.17 91 996.4
20191209140009 51 0 0.0 0.0 0.00 1.05 0.17 91 996.4
20191209134006 50 0 0.0 0.0 0.00 1.05 0.17 92 996.4
20191209133009 49 0 0.0 0.0 0.00 1.05 0.17 96 996.5
20191209132007 49 0 0.0 0.0 0.00 1.05 0.17 97 996.4
20191209123008 50 0 0.0 0.0 0.00 1.13 0.17 94 996.2
20191209121006 49 0 0.0 0.0 0.00 1.16 0.17 97 996.4
20191209120006 49 0 0.0 0.0 0.00 1.16 0.17 99 996.4
20191209115006 48 0 0.0 0.0 0.00 1.18 0.17 99 996.4
20191209114007 47 0 0.0 0.0 0.00 1.24 0.17 99 996.5
20191209112006 44 0 0.0 0.0 0.00 1.24 0.17 99 996.3
20191209111008 43 0 0.0 0.0 0.00 1.24 0.17 99 996.1
20191209104009 43 0 0.0 0.0 0.00 1.30 0.17 99 995.9
20191209102006 43 0 0.0 0.0 0.00 1.30 0.17 99 995.6
20191209100006 42 0 0.0 0.0 0.00 1.30 0.17 99 995.3
20191209095006 42 0 0.0 0.0 0.00 1.30 0.17 99 995.3
20191209093006 42 0 0.0 0.0 0.00 1.30 0.17 99 994.7
20191209090007 41 0 0.0 0.0 0.00 1.32 0.17 99 993.8
20191209085006 41 0 0.0 0.0 0.00 1.32 0.17 99 993.5
20191209082006 41 0 0.0 0.0 0.00 1.32 0.17 99 993.0
20191209081007 41 0 0.0 0.0 0.00 1.32 0.17 99 992.9
20191209080006 42 0 0.0 0.0 0.00 1.32 0.17 99 992.9
20191209075009 42 0 0.0 0.0 0.00 1.32 0.17 99 992.8
20191209074006 42 0 0.0 0.0 0.00 1.32 0.17 99 992.6
20191209073006 42 0 0.0 0.0 0.06 1.32 0.17 99 992.4
20191209071006 42 0 0.0 0.0 0.08 1.32 0.17 99 991.7
20191209065006 42 0 0.0 0.0 0.08 1.35 0.17 99 991.2
20191209061006 42 0 0.0 0.0 0.00 1.32 0.08 99 990.4
20191209060006 42 0 0.0 0.0 0.00 1.43 0.08 99 989.8
20191209054006 42 0 0.0 0.0 0.00 1.46 0.08 99 989.2
20191209053006 42 0 0.0 0.0 0.00 1.46 0.08 99 988.9
20191209052006 42 0 0.0 0.0 0.00 1.46 0.08 99 988.4
20191209051006 43 0 0.0 0.0 0.00 1.46 0.08 99 988.0
20191209045006 43 0 0.0 0.0 0.00 1.46 0.08 99 987.3
20191209044006 43 0 0.0 0.0 0.00 1.46 0.08 99 987.0
20191209043005 43 0 0.0 0.0 0.00 1.46 0.08 99 986.6
20191209034007 43 0 0.0 0.0 0.00 1.52 0.08 99 985.0
20191209033006 43 0 0.0 0.0 0.00 1.54 0.08 99 984.8
20191209032006 43 0 0.0 0.0 0.00 1.60 0.08 99 984.5